Regional Weather Roundup
Issued by NWS

Home | Current Version | Previous Version | Text Only | Print | Product List | Glossary On
Versions: 1 2 3 4 5 6 7 8 9 10 11 12 13 14 15 16 17 18 19 20 21 22 23 24 25 26 27 28 29 30 31 32 33 34 35 36 37 38 39 40 41 42 43 44 45 46 47 48 49 50
000
ASUS44 KFWD 281615
RWRTX
NORTH TEXAS HOURLY WEATHER ROUNDUP
NATIONAL WEATHER SERVICE FORT WORTH TX
1100 AM CDT SAT MAR 28 2015

NOTE: "FAIR" INDICATES FEW OR NO CLOUDS BELOW 12,000 FEET WITH NO
SIGNIFICANT WEATHER AND/OR OBSTRUCTIONS TO VISIBILITY.

TXZ118-119-281700-
DALLAS/FORT WORTH METROPLEX

CITY           SKY/WX    TMP DP  RH WIND       PRES   REMARKS
DFW AIRPORT    MOSUNNY   64  42  44 S14       30.08F
DALLAS LOVE    MOSUNNY   66  40  38 SE14      30.09F
FTW MEACHAM    SUNNY     65  43  44 S10       30.07F
DAL-EXECUTIVE  SUNNY     63  42  46 SE14      30.09S
FTW-ALLIANCE   MOSUNNY   65  43  44 S12       30.07F
FTW-SPINKS     SUNNY     66  45  45 S9        30.09F
ARLINGTON      SUNNY     65  41  41 S12       30.08F
GRAND PRAIRIE  SUNNY     63  45  51 S9        30.10F
ADDISON        SUNNY     63  39  42 SE14G20   30.10F
MESQUITE       SUNNY     63  45  51 SE13      30.10F
LANCASTER      SUNNY     61  43  50 SE12      30.12S
$$

TXZ091>094-102>105-117-120-121-131>134-281700-
NORTH CENTRAL TEXAS

CITY           SKY/WX    TMP DP  RH WIND       PRES   REMARKS
SHRMAN/DENISON MOSUNNY   60  46  60 S8        30.10F
GAINESVILLE    SUNNY     60  43  52 S14       30.10S
BOWIE          SUNNY     63  43  47 S8        30.07R
BRIDGEPORT     SUNNY     66  44  44 S8        30.08S
DECATUR        SUNNY     63  40  43 S9        30.07S
DENTON         SUNNY     63  42  46 S15       30.08F
MCKINNEY       SUNNY     62  42  47 S15       30.09F
GREENVILLE     MOSUNNY   63  39  42 S9        30.13R
ROCKWALL       SUNNY     61  42  50 S16       30.08F
TERRELL        SUNNY     62  44  51 S13G22    30.12F
WAXAHACHIE     SUNNY     62  46  56 S14       30.11F
CLEBURNE       SUNNY     63  46  55 SE9       30.10S
GRANBURY         N/A     69  45  41 S10       30.08F
$$

TXZ083>090-098>101-113>116-127>130-139>142-154-155-281700-
WESTERN NORTH TEXAS

CITY           SKY/WX    TMP DP  RH WIND       PRES   REMARKS
WICHITA FALLS  MOSUNNY   62  44  51 S9        30.04S
WF-KICKAPOO    SUNNY     65  46  50 S5        30.06S
VERNON         SUNNY     62  39  42 S6        30.04F
ABILENE        SUNNY     69  39  33 S21G35    30.04F
ABILENE-DYESS  SUNNY     73  45  37 SW15G25   30.03F
BRECKENRIDGE   SUNNY     74  39  28 SW10G17   30.04S HAZE
GRAHAM         SUNNY     70  43  36 S12G18    30.03S
MINERAL WELLS  SUNNY     64  45  49 S9        30.05S
STEPHENVILLE   SUNNY     70  39  32 SW16G22   30.09F
COMANCHE       SUNNY     70  42  37 SW13      30.08S
BROWNWOOD      SUNNY     68  43  40 S12       30.09F
COLEMAN        SUNNY     71  42  35 SW14      30.09S
BRADY          SUNNY     73  37  27 S13       30.10S
$$

TXZ143>147-156>162-174-175-281700-
CENTRAL TEXAS

CITY           SKY/WX    TMP DP  RH WIND       PRES   REMARKS
WACO           SUNNY     65  47  52 S12       30.10F
WACO-TSTC      SUNNY     64  48  55 S8        30.11F
WACO-MCGREGOR  SUNNY     68  48  49 S10       30.11F
HILLSBORO      SUNNY     64  46  51 S13       30.10S
CORSICANA      SUNNY     66  43  43 S15       30.13R
MEXIA          SUNNY     67  45  45 S12       30.11S
HEARNE         SUNNY     68  49  50 SE9       30.15S
CAMERON        SUNNY     70  46  41 S10G17    30.12F
TEMPLE         SUNNY     64  46  52 S9        30.10S
KILLEEN        SUNNY     72  39  30 SW14G22   30.09S
KILLEEN-SKYLRK SUNNY     72  45  37 MISG      30.11R
FORT HOOD      SUNNY     73  42  32 SW9       30.09S
GATESVILLE     SUNNY     70  43  37 SW13      30.11F
HAMILTON       SUNNY     72  41  31 SW20      30.09F
LAMPASAS       SUNNY     73  40  30 SW14      30.09S
$$

TXZ095>097-106>112-122>126-135>138-148>153-164>167-281700-
EAST TEXAS

CITY           SKY/WX    TMP DP  RH WIND       PRES   REMARKS
SULPHUR SPRNGS MOSUNNY   60  41  50 S9        30.16S
MOUNT PLEASANT PTSUNNY   58  43  57 SE5       30.17R
GILMER         MOSUNNY   59  42  53 S7        30.15S
MINEOLA        SUNNY     63  36  36 S8        30.14S
TYLER          SUNNY     65  39  38 S12       30.13S
LONGVIEW       MOSUNNY   61  42  49 S9        30.15S
MARSHALL       PTSUNNY   60  44  56 S8        30.18F
ATHENS         SUNNY     63  41  45 S9        30.12F
PALESTINE      SUNNY     66  44  43 S9        30.15S
JACKSONVILLE   SUNNY     63  41  44 S10G16    30.16S
HENDERSON      SUNNY     63  42  47 S8        30.17S
NACOGDOCHES    SUNNY     63  43  48 S13       30.18S
LUFKIN         SUNNY     68  43  40 SE9       30.17F
$$

SUPPLEMENTAL OBSERVATIONS (CENTRAL)

CITY           SKY/WX    TMP DP  RH WIND       PRES   REMARKS
LAKE TEXOMA      N/A     57  39  51 S7          N/A
CADDO GRASSLND   N/A     57  39  51 S9G17       N/A
PAT MAYSE LAKE   N/A     55  36  47 SE12        N/A
GREENVILLE       N/A     63  39  42 S9          N/A
CEDAR HILL       N/A     68  41  37 S9G17       N/A
ATHENS           N/A     66  37  34 S13         N/A
LAKE LIMESTONE   N/A     70  45  40 S9G17       N/A
MCGREGOR         N/A     68  46  45 S13         N/A
TEMPLE           N/A     66  46  48 S9          N/A
$$

SUPPLEMENTAL OBSERVATIONS (WEST)

CITY           SKY/WX    TMP DP  RH WIND       PRES   REMARKS
MILLERS CREEK    N/A     70  43  37 SW10        N/A
POSSUM KINGDOM   N/A     72  39  30 SW10        N/A
LBJ GRASSLAND    N/A     64  41  42 S10         N/A
GRANBURY         N/A     70  43  37 S12         N/A
COMANCHE         N/A     72  45  37 SW12G22     N/A
HAMBY            N/A     72  43  35 SW18G26     N/A
IVIE RESERVOIR   N/A     75  37  25 SW14        N/A
COLORADO BEND    N/A     72  37  28 SW14        N/A
$$

SUPPLEMENTAL OBSERVATIONS (EAST)

CITY           SKY/WX    TMP DP  RH WIND       PRES   REMARKS
CLARKSVILLE      N/A     57  41  54 SE10        N/A
TEXARKANA        N/A     55  41  58 SE7         N/A
LINDEN           N/A     61  41  48 S5          N/A
CADDO LAKE       N/A     61  43  51 SE6         N/A
GILMER           N/A     61  41  48 S10         N/A
HENDERSON        N/A     64  41  42 S10         N/A
LUFKIN           N/A     66  41  39 MISG        N/A
N SABINE NF      N/A     64  48  55 MISG        N/A
S SABINE NF      N/A     64  46  52 CALM        N/A
$$

SUPPLEMENTAL OBSERVATIONS ARE A COLLECTION OF AUTOMATED INSTRUMENTS
THAT ARE MAINTAINED BY A VARIETY OF FEDERAL AND STATE AGENCIES.
CERTAIN ELEMENTS...SUCH AS HUMIDITY VALUES AND SUSTAINED WIND
SPEEDS...MAY BE APPROXIMATED.




USA.gov is the U.S. government's official web portal to all federal, state and local government web resources and services.